TIME,DELAY(SENSOR),PRES,OXYGEN,RAWTEMP,T(OPTODE),TCPHASE,FLUOR,BETA(BETA700),BETA(BETA412),BETA(BETA440),CDOM,C(CSC),ED(ED412.20),ED(ED444.00),ED(ED489.60),ED(ED554.30),LU(LU412.10),LU(LU443.90),LU(LU489.70),LU(LU554.70),COMP,TILTX,TILTY,CHECK
1366345862,5810,855.3099975585938000,32.9058799743652340,560.5784301757812000,4.4679679870605470,56.6224784851074200,56,99,101,78,81,15403,0,0,0,0,2147123638,2147774473,2147565997,2147568054,481,2,13,32523
1366349458,5811,912.8800048828125000,38.9669685363769500,568.2163085937500000,4.2309761047363280,55.7556304931640600,55,98,99,78,81,15405,0,0,0,0,2147122550,2147769170,2147573942,2147568283,2844,2,13,23525
1366353058,5809,925.2500000000000000,39.1620292663574200,568.9263916015625000,4.2089200019836430,55.7316513061523440,55,97,100,77,82,15378,0,0,0,0,2147123840,2147774793,2147570486,2147570020,398,2,13,10529
1366356658,5810,956.3599853515625000,40.9039192199707000,571.0131225585938000,4.1440730094909670,55.4912185668945300,54,99,100,76,82,15378,0,0,0,0,2147120365,2147772096,2147575140,2147567140,3257,2,13,415
1366360258,5811,965.6699829101562000,40.2216606140136700,571.2974243164062000,4.1352372169494630,55.5983581542968750,55,102,100,76,82,15378,0,0,0,0,2147121398,2147764909,2147571209,2147568950,221,2,13,62014
1366363858,5810,964.2800292968750000,40.2828903198242200,571.0454711914062000,4.1430678367614750,55.5862312316894500,56,98,99,77,81,15375,0,0,0,0,2147124059,2147768804,2147568804,2147568704,55,2,13,16404
1366367458,5812,993.5100097656250000,39.3209609985351560,573.0958862304688000,4.0793128013610840,55.7523307800293000,55,98,99,78,82,15375,0,0,0,0,2147126418,2147771885,2147571163,2147568658,3530,2,13,4989
1366371058,5809,987.6199951171875000,41.1650695800781250,573.9271850585938000,4.0534529685974120,55.4879493713378900,54,98,100,79,82,15365,0,0,0,0,2147121974,2147774518,2147573037,2147570825,430,2,13,52453
1366374658,5813,993.6900024414062000,41.6213188171386700,573.9025878906250000,4.0542178153991700,55.4185218811035160,54,100,100,77,81,15370,0,0,0,0,2147120603,2147773860,2147572754,2147568950,210,2,13,15518
1366378258,5811,995.9000244140625000,42.4272499084472660,574.1104736328125000,4.0477538108825680,55.3001594543457000,55,98,99,77,82,15373,0,0,0,0,2147119113,2147773476,2147574034,2147568182,38,2,13,22071
1366381858,5808,990.9500122070312000,41.7392196655273440,573.9990234375000000,4.0512218475341800,55.3978195190429700,54,99,100,78,82,15372,0,0,0,0,2147123044,2147772736,2147568969,2147567360,253,2,13,42225
1366385458,5811,999.4699707031250000,41.2133483886718750,574.0435180664062000,4.0498371124267580,55.4823417663574200,54,98,100,77,82,15371,0,0,0,0,2147120905,2147767305,2147570084,2147568347,52,2,13,48802
1366389058,5811,997.8400268554688000,41.0660400390625000,574.0891113281250000,4.0484218597412110,55.5016288757324200,55,98,99,77,81,15371,0,0,0,0,2147123245,2147774528,2147571318,2147566528,3496,2,13,1728
1366392658,5813,993.7299804687500000,41.7247200012207000,573.9807128906250000,4.0517921447753910,55.4024391174316400,55,97,99,77,82,15371,0,0,0,0,2147121974,2147774720,2147573449,2147566500,3534,2,13,3227
1366396258,5810,1000.8400268554688000,41.9170799255371100,574.1757812500000000,4.0457210540771480,55.3791084289550800,55,98,100,78,82,15369,0,0,0,0,2147124909,2147766381,2147567360,2147566848,16,2,13,6360
1366399858,5810,998.3200073242188000,42.0762214660644500,574.1152954101562000,4.0476040840148930,55.3551101684570300,55,98,101,76,82,15371,0,0,0,0,2147123355,2147769078,2147569636,2147568411,2697,2,13,63151
1366403458,5809,997.2100219726562000,42.4268913269043000,574.5532836914062000,4.0339760780334470,55.3097686767578100,53,97,100,79,81,15371,0,0,0,0,2147120960,2147772955,2147576265,2147568237,3437,2,13,28986
1366407058,5810,989.8699951171875000,41.6885299682617200,575.2924194335938000,4.0109767913818360,55.4210700988769500,55,98,100,77,81,15369,0,0,0,0,2147125193,2147770642,2147569490,2147567030,212,2,13,35948
1366410658,5810,994.6699829101562000,42.6110000610351560,575.6525878906250000,3.9997670650482178,55.2893600463867200,55,98,100,78,81,15370,0,0,0,0,2147121846,2147773988,2147572498,2147566994,65,2,13,42942
1366414258,5812,994.5499877929688000,40.6596717834472660,575.7160034179688000,3.9977929592132570,55.5806388854980500,56,97,99,78,82,15371,0,0,0,0,2147122861,2147767296,2147574985,2147570221,82,2,13,37786
1366417858,5811,996.8200073242188000,40.7015190124511700,575.8806152343750000,3.9926719665527344,55.5748786926269500,55,98,100,77,81,15370,0,0,0,0,2147123382,2147770112,2147573814,2147568585,36,2,13,55487
1366421458,5810,1001.1799926757812000,42.5354385375976560,575.0004272460938000,4.0200629234313965,55.2957191467285160,54,96,100,78,80,15367,0,0,0,0,2147122468,2147772818,2147572553,2147568914,74,2,13,22124
1366425058,5809,1001.2500000000000000,42.3763618469238300,574.0214233398438000,4.0505261421203610,55.3078498840332000,55,101,101,78,82,15363,0,0,0,0,2147121984,2147770139,2147574235,2147562395,3285,2,13,18564
1366428658,5811,1005.9600219726562000,42.4932899475097660,574.2449951171875000,4.0435700416564940,55.2939682006835940,54,98,101,79,80,15263,0,0,0,0,2147121801,2147769435,2147566107,2147566070,242,2,13,5127
1366432258,5810,1005.6900024414062000,42.5149688720703100,574.1879272460938000,4.0453472137451170,55.2880783081054700,56,99,100,79,82,15266,0,0,0,0,2147124434,2147769828,2147575597,2147571712,199,2,13,30229
1366435858,5809,1001.3200073242188000,42.0918884277343750,573.9234008789062000,4.0535740852355960,55.3506202697753900,54,98,100,76,82,15266,0,0,0,0,2147122825,2147770752,2147572626,2147568996,3070,2,13,24549
1366439458,5809,1001.4500122070312000,40.7459983825683600,574.0435791015625000,4.0498352050781250,55.5466194152832000,54,98,99,78,83,15265,0,0,0,0,2147120978,2147769325,2147574034,2147564800,3380,2,13,60489
1366443058,5810,997.9899902343750000,41.6017608642578100,574.3380126953125000,4.0406761169433590,55.4270210266113300,55,98,100,77,81,15264,0,0,0,0,2147123584,2147771501,2147569316,2147568493,3379,2,13,24446
1366446658,5810,998.2199707031250000,42.1825485229492200,575.7988281250000000,3.9952158927917480,55.3578796386718750,56,98,101,79,82,15278,0,0,0,0,2147120182,2147767972,2147576237,2147565440,281,2,13,48102
1366450258,5810,1009.6900024414062000,43.0122299194335940,575.6210937500000000,4.0007481575012210,55.2340202331543000,54,99,100,77,81,15277,0,0,0,0,2147124809,2147767113,2147572370,2147567396,166,2,13,21403
1366453858,5807,1001.0800170898438000,41.4687690734863300,574.3560180664062000,4.0401148796081540,55.4462203979492200,55,96,101,78,82,15277,0,0,0,0,2147123712,2147770724,2147574601,2147569837,3374,2,13,26919
1366457458,5809,1008.5900268554688000,40.9829292297363300,573.8590087890625000,4.0555758476257320,55.5081405639648440,55,99,99,77,81,15271,0,0,0,0,2147126281,2147771346,2147571373,2147569234,224,2,13,16909
1366461058,5808,1002.1400146484375000,41.1115493774414060,574.1853027343750000,4.0454249382019040,55.4952812194824200,55,96,100,78,80,15271,0,0,0,0,2147119469,2147764690,2147572370,2147564928,3529,2,13,25756
1366464658,5808,999.9799804687500000,41.2382507324218750,575.4464721679688000,4.0061798095703125,55.4885482788085940,54,99,99,77,82,15271,0,0,0,0,2147119350,2147773056,2147569307,2147569508,292,2,13,6254
1366468258,5814,1001.1599731445312000,42.0628700256347660,575.7363281250000000,3.9971621036529540,55.3757591247558600,55,97,99,78,83,15271,0,0,0,0,2147125869,2147772608,2147574893,2147569581,3484,2,13,12381
1366471858,5809,1007.5700073242188000,41.6657791137695300,574.4865112304688000,4.0360569953918460,55.4201202392578100,55,101,99,78,82,15269,0,0,0,0,2147121545,2147772086,2147569901,2147568585,288,2,13,11108
1366475458,5807,1008.3400268554688000,41.8415489196777340,574.3704223632812000,4.0396671295166020,55.3932991027832000,55,100,100,77,82,15266,0,0,0,0,2147123904,2147769078,2147571730,2147568192,3077,2,13,29292
1366479058,5809,1008.2600097656250000,42.0443687438964840,574.2363281250000000,4.0438399314880370,55.3627090454101560,55,97,101,79,83,15265,0,0,0,0,2147121846,2147773385,2147567643,2147568694,239,2,13,62800
1366482658,5810,1002.9699707031250000,41.0569114685058600,574.8890991210938000,4.0235290527343750,55.5147018432617200,55,96,99,76,81,15267,0,0,0,0,2147119908,2147772096,2147571876,2147566144,59,2,13,42453
1366486258,5812,1005.2100219726562000,42.2462806701660160,574.3956298828125000,4.0388851165771480,55.3281517028808600,55,97,100,78,81,15262,0,0,0,0,2147120539,2147774473,2147569691,2147565092,3398,2,13,39420
1366489555,5811,1004.0999755859375000,41.2180290222168000,575.0748291015625000,4.0177497863769530,55.4862403869628900,54,98,100,77,82,15261,0,0,0,0,2147121865,2147771894,2147577618,2147567670,56,2,13,55210
